Weather History for Sanford, FL

Change the Weather History Date:

Monday, May 12, 2014

  Actual Average Record
Temperature  
Mean Temperature 78 °F -  
Max Temperature 88 °F 85 °F 98 °F (1967)
Min Temperature 68 °F 61 °F 51 °F (1986)
Cooling Degree Days 12    
Growing Degree Days 28 (Base 50)    
Moisture  
Dew Point 68 °F    
Average Humidity 75    
Maximum Humidity 96    
Minimum Humidity 43    
Precipitation  
Precipitation 0.00 in - - ()
Sea Level Pressure  
Sea Level Pressure 30.13 in    
Wind  
Wind Speed 7 mph (East)    
Max Wind Speed 16 mph    
Max Gust Speed 21 mph    
Visibility 10 miles    
Events      
Averages and records for this station are not official NWS values.
T = Trace of Precipitation, MM = Missing Value Source: NWS Daily Summary

Daily Weather History Graph

Daily Weather History Graph

Search for Another Location

Airport:

Trip Planner

Search our weather history database for the weather conditions in past years. The results will help you decide how hot, cold, wet, or windy it might be!

Date:

Astronomy

May. 12, 2014 Rise Set
Actual Time 6:35 AM EDT 8:07 PM EDT
Civil Twilight 6:10 AM EDT 8:32 PM EDT
Nautical Twilight 5:39 AM EDT 9:03 PM EDT
Astronomical Twilight 5:07 AM EDT 9:35 PM EDT
Moon 6:13 PM EDT (5/12) 5:01 AM EDT (5/12)
Length of Visible Light 14h 22m
Length of Day
13h 31m
Waxing Gibbous, 95% of the Moon is Illuminated
May 12
Waxing Gibbous
May 14
Full
May 21
Last Quarter
May 28
New
Jun 5
First Quarter

Hourly Weather History & Observations

Time (EDT) Temp. Heat Index Dew Point Humidity Pressure Visibility Wind Dir Wind Speed Gust Speed Precip Events Conditions
12:53 AM 72.0 °F - 68.0 °F 87% 30.13 in 10.0 mi ESE 6.9 mph - N/A   Clear
1:53 AM 72.0 °F - 68.0 °F 87% 30.12 in 10.0 mi ENE 3.5 mph - N/A   Clear
2:53 AM 72.0 °F - 68.0 °F 87% 30.11 in 10.0 mi Calm Calm - N/A   Clear
3:53 AM 70.0 °F - 66.9 °F 90% 30.10 in 10.0 mi ENE 3.5 mph - N/A   Clear
4:53 AM 68.0 °F - 66.9 °F 96% 30.10 in 10.0 mi ENE 3.5 mph - N/A   Clear
5:53 AM 68.0 °F - 66.9 °F 96% 30.11 in 10.0 mi Calm Calm - N/A   Clear
6:53 AM 69.1 °F - 66.9 °F 93% 30.13 in 10.0 mi NE 3.5 mph - N/A   Clear
7:53 AM 73.0 °F - 70.0 °F 90% 30.15 in 10.0 mi ENE 4.6 mph - N/A   Clear
8:53 AM 75.9 °F - 71.1 °F 85% 30.16 in 10.0 mi East 6.9 mph - N/A   Clear
10:53 AM 82.0 °F 85.5 °F 69.1 °F 65% 30.18 in 10.0 mi East 9.2 mph - N/A   Scattered Clouds
11:53 AM 82.9 °F 85.4 °F 66.9 °F 58% 30.18 in 10.0 mi East 8.1 mph - N/A   Partly Cloudy
12:53 PM 86.0 °F 87.6 °F 64.9 °F 49% 30.17 in 10.0 mi East 8.1 mph - N/A   Partly Cloudy
1:53 PM 87.1 °F 89.2 °F 66.0 °F 49% 30.16 in 10.0 mi East 13.8 mph - N/A   Partly Cloudy
2:53 PM 87.1 °F 88.3 °F 64.0 °F 46% 30.15 in 10.0 mi East 13.8 mph - N/A   Clear
3:53 PM 87.1 °F 87.5 °F 62.1 °F 43% 30.13 in 10.0 mi East 12.7 mph 20.7 mph N/A   Clear
4:53 PM 84.9 °F 88.2 °F 68.0 °F 57% 30.13 in 10.0 mi ESE 16.1 mph - N/A   Clear
5:53 PM 82.0 °F 85.5 °F 69.1 °F 65% 30.12 in 10.0 mi East 13.8 mph - N/A   Clear
6:53 PM 80.1 °F 83.2 °F 70.0 °F 71% 30.12 in 10.0 mi East 15.0 mph - N/A   Clear
7:53 PM 78.1 °F - 70.0 °F 76% 30.12 in 10.0 mi East 12.7 mph - N/A   Clear
8:53 PM 77.0 °F - 70.0 °F 79% 30.13 in 10.0 mi East 8.1 mph - N/A   Clear
9:53 PM 75.0 °F - 70.0 °F 84% 30.13 in 10.0 mi East 6.9 mph - N/A   Clear
11:53 PM 73.0 °F - 71.1 °F 93% 30.12 in 10.0 mi East 5.8 mph - N/A   Clear